Jacksonville, FL

9:23 AM EDT on June 28, 2017 (GMT -0400)
Jacksonville International

Weather History for KJAX - December, 2013

Change the Weather History Date:

Friday, December 27, 2013

  Actual Average Record
Temperature  
Mean Temperature 54 °F 53 °F  
Max Temperature 58 °F 65 °F 83 °F (2015)
Min Temperature 50 °F 42 °F 23 °F (1935)
Degree Days  
Heating Degree Days 11 12  
Month to date heating degree days 180 274  
Since 1 July heating degree days 336 447  
Cooling Degree Days 0 0  
Month to date cooling degree days 50 23  
Year to date cooling degree days 2649 2667  
Growing Degree Days 2 (Base 50)    
Moisture  
Dew Point 48 °F    
Average Humidity 83    
Maximum Humidity 93    
Minimum Humidity 72    
Precipitation  
Precipitation T in 0.08 in 1.63 in (1964)
Month to date precipitation 0.68 2.45  
Year to date precipitation 45.04 52.04  
Snow  
Snow 0.00 in 0.00 in T in (1892)
Month to date snowfall 0.0 0.0  
Since 1 July snowfall 0.0 0.0  
Snow Depth 0.00 in    
Sea Level Pressure  
Sea Level Pressure 30.30 in    
Wind  
Wind Speed 8 mph (NNE)    
Max Wind Speed 15 mph    
Max Gust Speed 19 mph    
Visibility 10 miles    
Events Rain    
T = Trace of Precipitation, MM = Missing Value Source: NWS Daily Summary

Daily Weather History Graph

Daily Weather History Graph

Search for Another Location

Airport or City:

Trip Planner

Search our weather history database for the weather conditions in past years. The results will help you decide how hot, cold, wet, or windy it might be!

Date:

Astronomy

Dec. 27, 2013 Rise Set
Actual Time 7:22 AM EST 5:33 PM EST
Civil Twilight 6:55 AM EST 6:00 PM EST
Nautical Twilight 6:25 AM EST 6:30 PM EST
Astronomical Twilight 5:56 AM EST 6:59 PM EST
Moon 2:06 AM EST (12/27) 1:31 PM EST (12/27)
Length of Visible Light 11h 04m
Length of Day
10h 11m
Waning Crescent, 28% of the Moon is Illuminated
Dec 27
Waning Crescent
Jan 1
New
Jan 7
First Quarter
Jan 15
Full
Jan 24
Last Quarter

Hourly Weather History & Observations

Time (EST) Temp. Dew Point Humidity Pressure Visibility Wind Dir Wind Speed Gust Speed Precip Events Conditions
12:45 AM 50.0 °F 46.0 °F 86% 30.27 in 10.0 mi North 3.5 mph - N/A   Overcast
12:56 AM 50.0 °F 46.0 °F 86% 30.27 in 10.0 mi North 4.6 mph - N/A   Overcast
1:56 AM 50.0 °F 46.9 °F 89% 30.27 in 10.0 mi North 5.8 mph - N/A   Overcast
2:56 AM 50.0 °F 46.9 °F 89% 30.25 in 10.0 mi NNE 8.1 mph - N/A   Overcast
3:56 AM 50.0 °F 46.9 °F 89% 30.26 in 10.0 mi North 4.6 mph - N/A   Overcast
4:56 AM 50.0 °F 48.0 °F 93% 30.27 in 10.0 mi NNW 5.8 mph - N/A   Overcast
5:56 AM 50.0 °F 48.0 °F 93% 30.27 in 10.0 mi North 3.5 mph - N/A   Overcast
6:56 AM 50.0 °F 48.0 °F 93% 30.29 in 10.0 mi North 4.6 mph - N/A   Mostly Cloudy
7:56 AM 51.1 °F 48.9 °F 92% 30.30 in 10.0 mi North 4.6 mph - N/A   Overcast
8:56 AM 52.0 °F 48.9 °F 89% 30.33 in 10.0 mi North 6.9 mph - N/A   Overcast
9:11 AM 52.0 °F 48.9 °F 89% 30.33 in 10.0 mi North 5.8 mph - N/A   Overcast
9:56 AM 53.1 °F 50.0 °F 89% 30.34 in 10.0 mi North 6.9 mph - N/A   Overcast
10:56 AM 55.9 °F 50.0 °F 80% 30.35 in 10.0 mi North 5.8 mph - N/A   Overcast
11:56 AM 57.0 °F 51.1 °F 81% 30.34 in 10.0 mi NNE 10.4 mph - N/A   Overcast
12:56 PM 57.0 °F 51.1 °F 81% 30.32 in 10.0 mi North 8.1 mph - N/A   Overcast
1:56 PM 57.0 °F 50.0 °F 77% 30.30 in 10.0 mi North 9.2 mph - N/A   Overcast
2:44 PM 57.0 °F 51.1 °F 81% 30.28 in 10.0 mi NE 8.1 mph - N/A   Overcast
2:56 PM 57.0 °F 51.1 °F 81% 30.28 in 10.0 mi NE 10.4 mph - N/A   Overcast
3:56 PM 55.9 °F 50.0 °F 80% 30.29 in 10.0 mi NE 11.5 mph - N/A   Overcast
4:56 PM 55.0 °F 50.0 °F 83% 30.31 in 10.0 mi North 11.5 mph - N/A   Overcast
5:56 PM 55.0 °F 48.9 °F 80% 30.32 in 10.0 mi NNE 12.7 mph - N/A   Overcast
6:41 PM 53.1 °F 48.9 °F 86% 30.32 in 10.0 mi NNE 9.2 mph - 0.00 in Rain Light Rain
6:56 PM 53.1 °F 48.9 °F 86% 30.32 in 10.0 mi NNE 9.2 mph - 0.00 in   Overcast
7:56 PM 54.0 °F 48.0 °F 80% 30.33 in 10.0 mi NNE 8.1 mph - N/A   Overcast
8:56 PM 54.0 °F 46.9 °F 77% 30.33 in 10.0 mi NNE 8.1 mph - N/A   Mostly Cloudy
9:56 PM 54.0 °F 46.0 °F 75% 30.34 in 10.0 mi NNE 8.1 mph - N/A   Mostly Cloudy
10:56 PM 55.0 °F 46.0 °F 72% 30.35 in 10.0 mi NNE 6.9 mph - N/A   Overcast
11:56 PM 55.9 °F 46.9 °F 72% 30.32 in 10.0 mi NNE 8.1 mph - N/A   Mostly Cloudy